Weather in Palevitsy

Russia / Komi Republic     61°59′42″N   50°22′00″E
temp.,
°C
wind,
m/s
gust,
m/s
humid.,
%
clouds,
%
prec.,
mm/h
press.,
hPa
HPBL,
m
17 june, thu
thu1700:00+8nw39840 0.0 1011246
03:00+6nnw278520 0.0 1012150
06:00+11nnw245821 0.0 1013476
09:00+16wnw244199 0.0 10132035
12:00+12wnw4674100 0.3 1014709
15:00+11nw268938 1.5 1016544
18:00+11nnw478693 1.3 1017777
21:00+9nw389390 1.4 1020328
18 june, fri
fri1800:00+6wnw27965 0.0 1022132
03:00+5w24935 0.0 102368
06:00+11w366852 0.0 1023288
09:00+16w4838100 0.0 10221637
12:00+20w4830100 0.0 10202326
15:00+13ssw2274100 0.4 101955
18:00+11sse2488100 0.5 101783
21:00+11sse2693100 1.8 1016124
19 june, sat
sat1900:00+11sse2394100 0.0 101663
03:00+12wsw2492100 0.0 101494
06:00+14sw2890100 0.0 1013219
09:00+22wsw4852100 0.0 10111023
12:00+24w41245100 0.1 10101650
15:00+26wnw61348100 0.2 10102197
18:00+23wnw51055100 0.0 10111442
21:00+19wnw51154100 0.0 1013754
20 june, sun
sun2000:00+15n4105823 0.0 1017775
03:00+9n278834 0.0 1020226
06:00+13nne23645 0.0 1022626
09:00+18nne124236 0.0 10211045
12:00+22wsw013039 0.0 10211467
15:00+18nw2346100 0.0 102174
18:00+18ese244847 0.0 1020246
21:00+14ese38626 0.0 1019147
21 june, mon
mon2100:00+15se3115967 0.0 1017281
03:00+16s3106826 0.0 1015287
06:00+20sw256773 0.0 1014290
09:00+27wsw4745100 0.0 1013811
12:00+29wsw4737100 0.0 10121916
15:00+30nw583399 0.0 10122041
18:00+21nnw117410 0.6 101225
21:00+17wnw4994100 5.3 1015324